Change the Weather History Date:

Thursday, September 5, 2013

  Actual Average Record
Temperature  
Mean Temperature 68 °F -  
Max Temperature 75 °F 73 °F 93 °F (1998)
Min Temperature 62 °F 48 °F 39 °F (2004)
Cooling Degree Days 4    
Growing Degree Days 18 (Base 50)    
Moisture  
Dew Point 61 °F    
Average Humidity 83    
Maximum Humidity 100    
Minimum Humidity 66    
Precipitation  
Precipitation 0.91 in - - ()
Sea Level Pressure  
Sea Level Pressure 29.98 in    
Wind  
Wind Speed 13 mph (NNW)    
Max Wind Speed 26 mph    
Max Gust Speed 30 mph    
Visibility 8 miles    
Events Rain , Thunderstorm    
Averages and records for this station are not official NWS values.
T = Trace of Precipitation, MM = Missing Value Source: NWS Daily Summary

Daily Weather History Graph

Daily Weather History Graph

Search for Another Location

Airport or City:

Trip Planner

Search our weather history database for the weather conditions in past years. The results will help you decide how hot, cold, wet, or windy it might be!

Date:

Astronomy

Sep. 05, 2013 Rise Set
Actual Time 6:14 AM PDT 7:22 PM PDT
Civil Twilight 5:43 AM PDT 7:53 PM PDT
Nautical Twilight 5:05 AM PDT 8:31 PM PDT
Astronomical Twilight 4:24 AM PDT 9:11 PM PDT
Moon 6:36 AM PDT (9/5) 7:09 PM PDT (9/5)
Length of Visible Light 14h 10m
Length of Day
13h 07m
New Moon, 0% of the Moon is Illuminated
Sep 5
New Moon
Sep 12
First Quarter
Sep 19
Full
Sep 26
Last Quarter
Oct 4
New

Hourly Weather History & Observations

Time (PDT) Temp. Dew Point Humidity Pressure Visibility Wind Dir Wind Speed Gust Speed Precip Events Conditions
12:58 AM 66.6 °F 60.6 °F 81% 29.93 in 10.0 mi NNE 11.5 mph - N/A   Mostly Cloudy
1:02 AM 66.2 °F 60.8 °F 83% 29.97 in 10.0 mi NNE 15.0 mph - N/A Thunderstorm Thunderstorm
1:18 AM 68.0 °F 60.8 °F 78% 30.02 in 10.0 mi NE 8.1 mph 19.6 mph N/A Rain , Thunderstorm Light Thunderstorms and Rain
1:58 AM 65.5 °F 56.7 °F 73% 30.00 in 10.0 mi South 12.7 mph - 0.16 in Rain , Thunderstorm Heavy Thunderstorms and Rain
2:05 AM 64.4 °F 57.2 °F 77% 30.05 in 9.0 mi SSW 13.8 mph 18.4 mph N/A Rain , Thunderstorm Heavy Thunderstorms and Rain
2:06 AM 64.4 °F 57.2 °F 77% 30.05 in 7.0 mi SW 17.3 mph 18.4 mph N/A Rain , Thunderstorm Heavy Thunderstorms and Rain
2:07 AM 64.4 °F 57.2 °F 77% 30.06 in 6.0 mi SW 17.3 mph 18.4 mph N/A Rain , Thunderstorm Heavy Thunderstorms and Rain
2:09 AM 64.4 °F 57.2 °F 77% 30.06 in 3.0 mi WSW 23.0 mph 25.3 mph N/A Rain , Thunderstorm Heavy Thunderstorms and Rain
2:10 AM 64.4 °F 55.4 °F 73% 30.06 in 2.5 mi WSW 23.0 mph - N/A Rain , Thunderstorm Heavy Thunderstorms and Rain
2:11 AM 64.4 °F 55.4 °F 73% 30.07 in 2.0 mi West 24.2 mph 29.9 mph N/A Rain , Thunderstorm Heavy Thunderstorms and Rain
2:12 AM 64.4 °F 57.2 °F 77% 30.07 in 2.0 mi West 26.5 mph 29.9 mph N/A Rain , Thunderstorm Heavy Thunderstorms and Rain
2:13 AM 64.4 °F 57.2 °F 77% 30.07 in 1.8 mi West 26.5 mph - N/A Rain , Thunderstorm Heavy Thunderstorms and Rain
2:19 AM 64.4 °F 57.2 °F 77% 30.08 in 2.0 mi WSW 19.6 mph 29.9 mph N/A Rain , Thunderstorm Heavy Thunderstorms and Rain
2:28 AM 62.6 °F 59.0 °F 88% 30.08 in 2.5 mi West 19.6 mph - N/A Rain , Thunderstorm Heavy Thunderstorms and Rain
2:29 AM 62.6 °F 59.0 °F 88% 30.07 in 2.0 mi West 18.4 mph - N/A Rain , Thunderstorm Heavy Thunderstorms and Rain
2:30 AM 62.6 °F 59.0 °F 88% 30.07 in 2.5 mi West 18.4 mph - N/A Rain , Thunderstorm Heavy Thunderstorms and Rain
2:32 AM 62.6 °F 59.0 °F 88% 30.06 in 3.0 mi West 16.1 mph - N/A Rain , Thunderstorm Heavy Thunderstorms and Rain
2:40 AM 62.6 °F 59.0 °F 88% 30.04 in 5.0 mi WNW 15.0 mph - N/A Rain , Thunderstorm Thunderstorms and Rain
2:53 AM 62.6 °F 59.0 °F 88% 30.03 in 9.0 mi NW 12.7 mph - N/A Rain , Thunderstorm Light Thunderstorms and Rain
2:58 AM 63.0 °F 59.4 °F 88% 29.99 in 10.0 mi NW 15.0 mph - 0.63 in Rain , Thunderstorm Light Thunderstorms and Rain
2:59 AM 62.6 °F 59.0 °F 88% 30.02 in 10.0 mi NW 15.0 mph - N/A Rain Light Rain
3:18 AM 62.6 °F 59.0 °F 88% 30.01 in 10.0 mi NNW 12.7 mph - N/A   Overcast
3:58 AM 64.9 °F 58.1 °F 78% 29.95 in 10.0 mi North 16.1 mph - 0.00 in   Mostly Cloudy
4:58 AM 63.9 °F 60.6 °F 89% 29.99 in 10.0 mi East 8.1 mph - N/A   Mostly Cloudy
5:56 AM 64.4 °F 60.8 °F 88% 30.04 in 10.0 mi SE 6.9 mph - N/A   Light Drizzle
5:58 AM 64.0 °F 60.1 °F 87% 30.00 in 10.0 mi SE 6.9 mph - 0.01 in   Light Drizzle
6:58 AM 63.0 °F 61.3 °F 94% 29.97 in 9.0 mi ENE 11.5 mph - 0.03 in Rain Light Rain
7:32 AM 62.6 °F 62.6 °F 100% 29.99 in 10.0 mi NE 18.4 mph - N/A   Mostly Cloudy
7:58 AM 63.3 °F 62.2 °F 96% 29.97 in 10.0 mi ENE 13.8 mph - 0.00 in   Partly Cloudy
8:58 AM 64.9 °F 62.6 °F 92% 29.98 in 10.0 mi NNE 12.7 mph - N/A   Clear
9:58 AM 70.0 °F 63.0 °F 78% 29.99 in 10.0 mi NE 10.4 mph - N/A   Clear
10:58 AM 72.3 °F 62.4 °F 71% 29.99 in 10.0 mi ENE 12.7 mph - N/A   Clear
11:58 AM 70.5 °F 61.0 °F 72% 29.99 in 10.0 mi NE 12.7 mph - N/A   Scattered Clouds
12:58 PM 70.7 °F 62.6 °F 75% 29.98 in 10.0 mi NNE 8.1 mph - N/A   Mostly Cloudy
1:58 PM 71.4 °F 63.1 °F 75% 29.96 in 10.0 mi North 10.4 mph - N/A   Scattered Clouds
2:58 PM 73.9 °F 63.3 °F 69% 29.96 in 10.0 mi NNE 8.1 mph - N/A   Partly Cloudy
3:58 PM 75.2 °F 63.0 °F 66% 29.92 in 10.0 mi NE 6.9 mph - N/A   Clear
4:58 PM 74.5 °F 62.2 °F 66% 29.88 in 10.0 mi NNE 11.5 mph - N/A   Clear
5:58 PM 73.2 °F 62.6 °F 69% 29.88 in 10.0 mi North 11.5 mph - N/A   Clear
6:58 PM 71.8 °F 63.1 °F 74% 29.88 in 10.0 mi NNE 6.9 mph - N/A   Clear
7:58 PM 71.1 °F 63.5 °F 77% 29.90 in 10.0 mi NE 4.6 mph - N/A   Mostly Cloudy
8:02 PM 69.8 °F 64.4 °F 83% 29.93 in 10.0 mi NE 3.5 mph - N/A   Light Drizzle
8:22 PM 69.8 °F 62.6 °F 78% 29.93 in 10.0 mi Calm Calm - N/A   Scattered Clouds
8:46 PM 68.0 °F 64.4 °F 88% 29.96 in 10.0 mi South 13.8 mph - N/A Thunderstorm Thunderstorm
8:52 PM 69.8 °F 62.6 °F 78% 29.97 in 10.0 mi South 10.4 mph - N/A Rain , Thunderstorm Light Thunderstorms and Rain
8:58 PM 69.4 °F 63.5 °F 81% 29.94 in 10.0 mi South 10.4 mph - 0.00 in Rain , Thunderstorm Light Thunderstorms and Rain
9:13 PM 66.2 °F 64.4 °F 94% 29.92 in 9.0 mi Variable 4.6 mph - N/A Rain Light Rain
9:25 PM 64.4 °F 62.6 °F 94% 29.94 in 10.0 mi SSW 8.1 mph - N/A   Overcast
9:35 PM 64.4 °F 62.6 °F 94% 29.93 in 10.0 mi SW 8.1 mph - N/A Rain Light Rain
9:42 PM 64.4 °F 62.6 °F 94% 29.94 in 10.0 mi SSW 8.1 mph - N/A   Overcast
9:43 PM 64.4 °F 62.6 °F 94% 29.94 in 10.0 mi SSW 10.4 mph - N/A Rain Light Rain
9:58 PM 63.9 °F 62.4 °F 95% 29.91 in 10.0 mi SSW 5.8 mph - 0.07 in Rain Light Rain
10:14 PM 62.6 °F 62.6 °F 100% 29.94 in 10.0 mi North 4.6 mph - N/A   Overcast
10:58 PM 63.5 °F 62.6 °F 97% 29.90 in 10.0 mi NE 5.8 mph - 0.01 in   Scattered Clouds
11:58 PM 62.6 °F 62.2 °F 99% 29.92 in 10.0 mi SE 5.8 mph - N/A   Clear